Main page
METAR-TAF:

METAR-TAF

Airports :

Sirri, Iran

Sirri Island Airport

latitude: 25-54-34N, longitude: 054-32-22E, elevation: 13 m

Current weather observation

The report was made 5 hours and 25 minutes ago, at 15:00 UTC
Wind 8 kt from the East/Northeast
Temperature 22°C
Humidity 65%
Pressure 1020 hPa
Visibility 10 km or more
Few clouds at a height of 3500 ft

METAR: OIBS 181500Z 06008KT 9999 FEW035 22/15 Q1020

Time: 23:55 (20:25 UTC)


TAF: missing

Weather observations and forecasts of more than 4000 airports (METAR and TAF reports).

The available stations are represented by yellow and red dots on the map.

Hover mouse over dot to see the name of the station.

Then click to see weather observations and forecasts.

To change the map : click on the green buttons with a black cross to zoom in, on the green button with a dash to zoom out, or on the green arrows for adjacent maps.


METAR-TAF: